[[{"header":{"parameterUnit":"m.s-1","parameterCategory":1,"la1":30.2991,"la2":30.254,"lo1":-89.0895,"lo2":-89.0444,"dy":0.0017,"dx":0.0017,"nx":28,"ny":28,"refTime":"2025-01-02T03:00:00:Z","depth":0,"parameterNumber":2,"parameterNumberName":"U-component_of_WINDS"},"data":[0,0,0,0,0,0,0,0,0,0,0,0,0,0,0,0,0,0,0,0,0,0,0,0,0,0,0,0,0,0,0,0,0,0,0,0,0,0,0,0,0,0,0,0,0,0,0,0,0,0,0,0,0,0,0,0,0,0,0.3264,0.3265,0,0.3296,0.3297,0.3297,0.3316,0.3316,0.3316,0.3316,0.3348,0.3349,0.335,0,0,0,0,0,0,0,0,0,0,0,0,0,0.322,0.3221,0.3264,0.3265,0.3265,0.3296,0.3297,0.3297,0.3316,0.3316,0.3316,0.3316,0.3348,0.3349,0.335,0,0,0,0,0,0,0,0,0,0,0,0,0,0.3244,0.3221,0.3264,0.3278,0.328,0.3296,0.3297,0.3297,0.3316,0.3316,0.3316,0.3316,0.3348,0.3349,0.335,0.3356,0,0,0.3354,0.3354,0,0,0,0,0,0,0,0,0.3243,0.3246,0.3276,0.3277,0.3279,0.3302,0.3293,0.3317,0.3315,0.3302,0.3316,0.3316,0.3333,0.3335,0.3341,0.3357,0.3358,0.3354,0.3355,0.3355,0.3356,0,0,0,0,0,0,0,0.3241,0.3245,0.3277,0.3276,0.3278,0.3283,0.3286,0.3298,0.3316,0.3303,0.3304,0.3308,0.3334,0.334,0.3342,0.3359,0.3354,0.3355,0.3356,0.3356,0.3382,0.3382,0,0,0,0,0,0,0.3237,0.3243,0.3276,0.3278,0.3261,0.3284,0.3288,0.3294,0.3316,0.332,0.3308,0.3309,0.3338,0.3341,0.3343,0.3352,0.3355,0.3356,0.3357,0.3382,0.3382,0.3382,0,0,0,0,0,0,0.3236,0.324,0.3275,0.3261,0.3266,0.3284,0.3292,0.3295,0.3301,0.332,0.3323,0.3311,0.3338,0.3342,0.3353,0.3353,0.3357,0.3358,0.3382,0.3382,0.3382,0.3368,0,0,0,0,0,0,0.3235,0.3239,0.3241,0.3261,0.3266,0.3283,0.3292,0.3296,0.3303,0.3305,0.3323,0.3327,0.3338,0.3351,0.3354,0.3355,0.3359,0.3382,0.3382,0.3382,0.3368,0.3367,0.3366,0,0,0,0,0,0.3233,0.3236,0.3241,0.3245,0.3269,0.3283,0.3286,0.33,0.3303,0.3305,0.3318,0.3326,0.3353,0.3352,0.3355,0.3357,0.3382,0.3382,0.3382,0.3369,0.3368,0.3366,0,0,0,0,0,0,0.3215,0.3238,0.3245,0.3254,0.3266,0.3286,0.3289,0.3298,0.3309,0.331,0.3327,0.3331,0.334,0.335,0.3348,0.3364,0.3369,0.3369,0.3357,0.3356,0.3355,0.3352,0.336,0,0,0,0,0,0.3212,0.3222,0.3241,0.3247,0.3253,0.327,0.3277,0.3286,0.33,0.3305,0.3318,0.3331,0.3343,0.335,0.3361,0.337,0.3375,0.3373,0.3372,0.3371,0.3371,0.3378,0.3377,0.3382,0.3382,0.3382,0,0,0.3206,0.322,0.3225,0.3244,0.3255,0.3265,0.3275,0.3284,0.3292,0.3307,0.3318,0.3328,0.3344,0.3354,0.3359,0.3362,0.3371,0.3371,0.337,0.3371,0.3377,0.3377,0.3377,0.3382,0.3382,0.3382,0,0,0.32,0.3212,0.3218,0.3229,0.3246,0.3257,0.3259,0.3278,0.3285,0.3297,0.3309,0.3319,0.3338,0.3349,0.3357,0.3357,0.3365,0.336,0.3355,0.3361,0.336,0.336,0.3361,0.3361,0.336,0.336,0.336,0,0.3191,0.3206,0.322,0.323,0.3238,0.3253,0.326,0.327,0.329,0.3295,0.3298,0.3324,0.3335,0.3349,0.3349,0.3355,0.3358,0.3358,0.3359,0.3359,0.3359,0.336,0.336,0.336,0.336,0.336,0.336,0,0.3193,0.3204,0.3207,0.3226,0.3235,0.3243,0.3259,0.3267,0.3276,0.3287,0.33,0.3315,0.333,0.3334,0.3342,0.3349,0.335,0.3356,0.3361,0.3358,0.3359,0.3359,0.3359,0.3359,0.3359,0.3359,0,0,0.3176,0.3204,0.3205,0.3214,0.3234,0.3243,0.3252,0.3267,0.3273,0.3287,0.3295,0.3312,0.3318,0.3327,0.3338,0.3343,0.3343,0.3348,0.3349,0.3347,0.3352,0.3347,0.3347,0.3349,0.3349,0.3349,0.335,0,0.3173,0.319,0.3204,0.3216,0.3227,0.3242,0.325,0.3264,0.3275,0.3285,0.3298,0.331,0.3316,0.3322,0.3328,0.3341,0.3344,0.3342,0.3357,0.3358,0.3352,0.3347,0.3342,0.3343,0.3351,0.3351,0.3351,0,0.3171,0.3185,0.3198,0.3218,0.3223,0.323,0.3246,0.3256,0.3272,0.328,0.3291,0.3302,0.3313,0.3318,0.3334,0.3332,0.3339,0.3347,0.3347,0.3349,0.3354,0.3349,0.3343,0.3343,0.3352,0.3352,0.3351,0,0.3158,0.3179,0.319,0.3197,0.3221,0.3226,0.3236,0.3252,0.3261,0.3275,0.3281,0.3296,0.3304,0.3316,0.3331,0.3333,0.3346,0.3351,0.3353,0.3353,0.3355,0.3354,0.335,0.3359,0.3359,0.3359,0.3359,0,0.3153,0.316,0.3184,0.3191,0.32,0.3217,0.3226,0.3237,0.3252,0.3262,0.3276,0.3285,0.3304,0.3315,0.3328,0.334,0.3343,0.335,0.3353,0.3349,0.3348,0.3354,0.3354,0.336,0.336,0.3359,0.3359,0,0.3139,0.3155,0.3168,0.319,0.3196,0.3201,0.322,0.3228,0.324,0.3253,0.3256,0.3276,0.329,0.3307,0.3326,0.3335,0.3346,0.335,0.334,0.3342,0.3343,0.3343,0.3342,0.3343,0.3352,0.3352,0.3351,0,0.3134,0.3141,0.3164,0.3171,0.3181,0.3193,0.3202,0.322,0.3229,0.3248,0.3254,0.3269,0.3282,0.3305,0.3321,0.3336,0.3341,0.334,0.3344,0.3339,0.3342,0.3341,0.3342,0.3339,0.3339,0.3339,0.3338,0,0.3125,0.3133,0.3146,0.3162,0.3172,0.3186,0.3199,0.3205,0.3225,0.3235,0.325,0.326,0.3281,0.3296,0.3314,0.3325,0.3335,0.3337,0.3339,0.3334,0.3328,0.3332,0.3338,0.3337,0.3337,0.3337,0.3337,0.3337,0.3116,0.3123,0.314,0.3154,0.3167,0.318,0.3188,0.3202,0.3215,0.3233,0.3243,0.3258,0.3275,0.33,0.3311,0.3323,0.3327,0.3328,0.3329,0.3329,0.3328,0.3326,0.3327,0.3327,0.3327,0.3327,0.3327,0,0.3108,0.312,0.3133,0.3152,0.3163,0.3173,0.3189,0.3198,0.3211,0.3226,0.3239,0.3257,0.3272,0.3291,0.3307,0.3314,0.3319,0.3318,0.3317,0.332,0.3324,0.3321,0.3313,0.3313,0.3313,0.3313,0.3313,0.3313,0.3105,0.3117,0.3127,0.3146,0.3158,0.3173,0.3182,0.3194,0.3207,0.3226,0.3239,0.3251,0.3268,0.3286,0.3301,0.3306,0.3312,0.3309,0.3315,0.3318,0.3319,0.3321,0.3318,0.331,0.331,0.3311,0.3311,0.3311]},{"header":{"parameterUnit":"m.s-1","parameterCategory":1,"la1":30.2991,"la2":30.254,"lo1":-89.0895,"lo2":-89.0444,"dy":0.0017,"dx":0.0017,"nx":28,"ny":28,"refTime":"2025-01-02T03:00:00:Z","depth":0,"parameterNumber":3,"parameterNumberName":"V-component_of_WINDS"},"data":[0,0,0,0,0,0,0,0,0,0,0,0,0,0,0,0,0,0,0,0,0,0,0,0,0,0,0,0,0,0,0,0,0,0,0,0,0,0,0,0,0,0,0,0,0,0,0,0,0,0,0,0,0,0,0,0,0,0,-4.3937,-4.3938,0,-4.4034,-4.4035,-4.4036,-4.4042,-4.404,-4.4039,-4.4038,-4.4133,-4.4136,-4.414,0,0,0,0,0,0,0,0,0,0,0,0,0,-4.3753,-4.3757,-4.3936,-4.3938,-4.3939,-4.4033,-4.4035,-4.4036,-4.4042,-4.404,-4.4039,-4.4038,-4.4131,-4.4136,-4.414,0,0,0,0,0,0,0,0,0,0,0,0,0,-4.384,-4.3758,-4.3936,-4.3953,-4.3956,-4.4033,-4.4035,-4.4036,-4.4042,-4.404,-4.4039,-4.4037,-4.413,-4.4135,-4.414,-4.4206,0,0,-4.4157,-4.4159,0,0,0,0,0,0,0,0,-4.3835,-4.3846,-4.395,-4.3952,-4.3955,-4.4024,-4.4005,-4.4093,-4.4042,-4.4009,-4.4038,-4.4036,-4.4097,-4.4105,-4.4127,-4.421,-4.4214,-4.4157,-4.416,-4.4163,-4.4164,0,0,0,0,0,0,0,-4.3829,-4.3842,-4.3975,-4.3951,-4.3954,-4.3955,-4.3966,-4.4021,-4.4061,-4.4012,-4.4013,-4.4024,-4.4099,-4.4122,-4.4129,-4.4216,-4.4157,-4.4162,-4.4165,-4.4167,-4.436,-4.4362,0,0,0,0,0,0,-4.382,-4.3837,-4.3972,-4.3978,-4.389,-4.396,-4.3971,-4.4003,-4.4061,-4.4068,-4.4026,-4.4024,-4.4114,-4.4123,-4.4132,-4.4215,-4.4162,-4.4167,-4.4171,-4.4358,-4.436,-4.4363,0,0,0,0,0,0,-4.3816,-4.3832,-4.3968,-4.3908,-4.3925,-4.3965,-4.4,-4.4006,-4.4029,-4.4071,-4.4078,-4.4042,-4.4113,-4.4125,-4.4189,-4.4218,-4.417,-4.4175,-4.4356,-4.4359,-4.4362,-4.4378,0,0,0,0,0,0,-4.3811,-4.383,-4.3856,-4.3908,-4.3928,-4.4023,-4.4002,-4.4009,-4.4039,-4.4038,-4.4088,-4.4095,-4.4112,-4.4181,-4.4194,-4.4224,-4.4179,-4.4353,-4.4357,-4.4361,-4.4375,-4.4381,-4.4387,0,0,0,0,0,-4.3804,-4.3855,-4.3857,-4.3874,-4.3962,-4.4025,-4.4036,-4.4056,-4.4041,-4.4068,-4.4095,-4.4093,-4.4213,-4.4187,-4.4202,-4.4234,-4.4352,-4.4356,-4.436,-4.4373,-4.438,-4.4387,0,0,0,0,0,0,-4.3803,-4.3862,-4.3865,-4.3935,-4.3975,-4.4026,-4.4059,-4.4063,-4.4107,-4.4104,-4.4126,-4.4137,-4.42,-4.4224,-4.4194,-4.4302,-4.428,-4.4288,-4.4285,-4.4292,-4.4298,-4.4291,-4.4183,0,0,0,0,0,-4.3812,-4.3859,-4.3908,-4.3965,-4.3985,-4.4019,-4.4047,-4.4059,-4.4101,-4.4117,-4.4149,-4.4188,-4.4235,-4.4264,-4.4309,-4.4379,-4.439,-4.4409,-4.4414,-4.4419,-4.4425,-4.4465,-4.4475,-4.4377,-4.4377,-4.4377,0,0,-4.3828,-4.3867,-4.3895,-4.3965,-4.3998,-4.4046,-4.4032,-4.4083,-4.412,-4.4124,-4.4187,-4.4212,-4.4257,-4.4325,-4.4356,-4.4346,-4.4455,-4.4424,-4.4428,-4.4432,-4.4471,-4.448,-4.4488,-4.438,-4.4379,-4.4379,0,0,-4.3884,-4.3917,-4.397,-4.4004,-4.4054,-4.4077,-4.4089,-4.414,-4.4157,-4.4221,-4.4227,-4.4269,-4.4348,-4.4381,-4.4408,-4.4479,-4.448,-4.4493,-4.4523,-4.4562,-4.457,-4.4577,-4.4603,-4.4613,-4.4499,-4.4499,-4.4499,0,-4.3898,-4.3972,-4.3995,-4.4048,-4.4079,-4.4089,-4.4142,-4.4173,-4.4234,-4.4255,-4.4244,-4.4346,-4.4376,-4.4453,-4.4471,-4.4492,-4.4507,-4.4487,-4.4567,-4.4574,-4.4581,-4.4607,-4.4617,-4.4501,-4.4501,-4.45,-4.45,0,-4.3988,-4.404,-4.4075,-4.4138,-4.4173,-4.4225,-4.4256,-4.4289,-4.4299,-4.4323,-4.4389,-4.4427,-4.4481,-4.4499,-4.4508,-4.4578,-4.457,-4.4563,-4.4541,-4.4591,-4.4616,-4.4626,-4.4503,-4.4502,-4.4502,-4.4501,0,0,-4.4044,-4.4121,-4.4134,-4.4164,-4.4221,-4.4261,-4.4314,-4.4369,-4.4398,-4.444,-4.4485,-4.4554,-4.4548,-4.4579,-4.4592,-4.4626,-4.4682,-4.4615,-4.4616,-4.4627,-4.4763,-4.4769,-4.478,-4.4684,-4.4686,-4.4687,-4.4759,0,-4.4107,-4.4204,-4.4227,-4.431,-4.4358,-4.4369,-4.4416,-4.4456,-4.448,-4.4524,-4.455,-4.4599,-4.4587,-4.4606,-4.464,-4.4668,-4.471,-4.4663,-4.4726,-4.4728,-4.4715,-4.4792,-4.4798,-4.4864,-4.4769,-4.477,-4.4772,0,-4.4192,-4.4241,-4.4329,-4.4383,-4.4404,-4.4446,-4.4499,-4.4541,-4.4587,-4.4603,-4.4639,-4.4649,-4.4705,-4.4681,-4.4758,-4.4726,-4.4752,-4.477,-4.4773,-4.478,-4.4753,-4.4802,-4.4886,-4.4896,-4.4787,-4.4785,-4.4784,0,-4.4226,-4.4312,-4.4377,-4.4402,-4.4466,-4.4495,-4.4523,-4.4568,-4.46,-4.4647,-4.4668,-4.4719,-4.4748,-4.4787,-4.4811,-4.4791,-4.4886,-4.4864,-4.49,-4.49,-4.492,-4.4918,-4.501,-4.4936,-4.4936,-4.4936,-4.4936,0,-4.4294,-4.4348,-4.4394,-4.4433,-4.4494,-4.4521,-4.458,-4.4608,-4.4648,-4.4693,-4.4705,-4.4746,-4.4775,-4.4821,-4.484,-4.4902,-4.4914,-4.4927,-4.4932,-4.4927,-4.4925,-4.4945,-4.4941,-4.4938,-4.4938,-4.4937,-4.4937,0,-4.4342,-4.4375,-4.4446,-4.4503,-4.4518,-4.456,-4.4608,-4.4647,-4.4672,-4.4729,-4.4744,-4.4783,-4.4838,-4.4866,-4.4933,-4.4946,-4.5016,-4.5017,-4.5001,-4.5003,-4.5039,-4.5035,-4.5146,-4.5163,-4.5077,-4.5078,-4.5079,0,-4.4383,-4.4426,-4.4488,-4.452,-4.4549,-4.46,-4.4635,-4.4663,-4.4698,-4.4755,-4.4787,-4.4843,-4.489,-4.4976,-4.501,-4.5062,-4.5065,-4.51,-4.5072,-4.5067,-4.5067,-4.5064,-4.5069,-4.5105,-4.5106,-4.5106,-4.5107,0,-4.4454,-4.4469,-4.4519,-4.4576,-4.4617,-4.4662,-4.4707,-4.4732,-4.4767,-4.4806,-4.4864,-4.49,-4.4971,-4.5026,-4.5081,-4.5108,-4.5114,-4.5116,-4.5127,-4.5123,-4.5112,-4.512,-4.5016,-4.5113,-4.5112,-4.5112,-4.5112,-4.5111,-4.4501,-4.454,-4.4591,-4.4647,-4.4684,-4.4726,-4.4766,-4.4798,-4.4847,-4.4909,-4.4922,-4.4983,-4.503,-4.5105,-4.5134,-4.5182,-4.5174,-4.519,-4.5194,-4.5198,-4.5201,-4.5105,-4.5192,-4.5191,-4.5191,-4.5191,-4.5191,0,-4.4573,-4.4607,-4.4659,-4.4723,-4.4767,-4.4771,-4.4821,-4.4857,-4.4912,-4.4956,-4.5002,-4.5069,-4.5124,-4.5163,-4.5218,-4.5249,-4.5253,-4.5263,-4.5261,-4.5268,-4.5204,-4.5189,-4.5259,-4.5259,-4.5259,-4.5259,-4.5259,-4.5259,-4.4616,-4.4683,-4.4705,-4.4791,-4.4824,-4.4886,-4.4915,-4.4954,-4.4989,-4.5065,-4.5111,-4.5137,-4.518,-4.5239,-4.5289,-4.5299,-4.5319,-4.5329,-4.5339,-4.5279,-4.5272,-4.5265,-4.5251,-4.5333,-4.5333,-4.54,-4.54,-4.5401]}]]